Volver al catálogo

SCOUT A R/B

ActivoPO
NORAD 1953·ROCKET BODY·🇺🇸 United States

Lanzado Jan 28, 1966 desde Vandenberg Space Force Base

Loading…

Próximos Pases (próximas 24 horas)

TLE

ActualizadoSource: Space-Track

Época: Sep 14, 2026, 05:02 UTC

1 01953U 66005B   26257.20985649  .00000143  00000-0  14131-3 0  9991
2 01953  90.1522 353.9776 0225066 279.9772  77.6056 13.65090354 15039

Sigue SCOUT A R/B en tiempo real con AllMySat

Download on the App Store